User: anonymous   Login
Location: Veyrier
(46.1830°N, 6.2000°E)
Time: 21:55:14
(UTC+01:00)
Language:

Iridium 98 - Orbit

View from above orbital plane
View from above orbital plane
View from above satellite
View from above satellite

Ground track
Ground track

The orbit data is extracted from the following two-line orbital elements,

1 27451U 02031B   15 86.67494354  .00000125  00000-0  44521-4 0  9995
2 27451 086.4010 001.8710 0002484 078.9872 281.2084 14.34220685674845
Epoch (UTC): 27 March 2015 16:11:55
Eccentricity: 0.0002484
inclination: 86.4010°
perigee height: 776 km
apogee height: 779 km
right ascension of ascending node: 1.8710°
argument of perigee: 78.9872°
revolutions per day: 14.34220685
mean anomaly at epoch: 281.2084°
orbit number at epoch: 67484

The dashed part of the orbit path shows where the satellite is in the earth's shadow,  

DLR